Location: Newark
(41.0400°S, 62.7845°W)
Time: 23:54:25
(UTC+00:00)

Vanguard 2 - Pass Details

Date: 03 December 2021
Orbit: 554 x 2935 km, 32.9° (Epoch: 27 January)

Event Time Altitude Azimuth Distance (km) Brightness Sun altitude
Exits shadow 04:37:34 34° 333° (NNW) 4,022 10.6 -26.3°
Maximum altitude 04:44:50 48° 20° (NNE) 3,236 10.2 -26.0°
Drops below altitude 10° 04:57:36 10° 88° (E) 4,545 11.6 -25.5°
Sets 05:00:47 0° 94° (E) 5,258 12.0 -25.3°
